Regional Weather Roundup
Issued by NWS

Home | Current Version | Previous Version | Graphics & Text | Print | Product List | Glossary On
Versions: 1 2 3 4 5 6 7 8 9 10 11 12 13 14 15 16 17 18 19 20 21 22 23 24 25 26 27 28 29 30 31 32 33 34 35 36 37 38 39 40 41 42 43 44 45 46 47 48 49 50
000
ASUS43 KDMX 190406
RWRIA

WEATHER ROUNDUP FOR IOWA
NATIONAL WEATHER SERVICE DES MOINES IA
1000 PM CST THU JAN 18 2018

NOTE: "FAIR" INDICATES FEW OR NO CLOUDS BELOW 12,000 FEET WITH NO
SIGNIFICANT WEATHER AND/OR OBSTRUCTIONS TO VISIBILITY.

* - THESE STATIONS ARE NOT NWS STATIONS...THUS NOT UNDER NWS
QUALITY CONTROL.  THEY ALSO DO NOT REPORT WEATHER SUCH
AS PRECIPITATION OR FOG.

IAZ001>003-012>014-020>022-031>034-043>046-190500-
   NORTHWEST IOWA

CITY           SKY/WX    TMP DP  RH WIND       PRES   REMARKS
CARROLL *      CLOUDY    32  23  69 SW20      29.86F WCI  20
CHEROKEE *     CLOUDY    29  25  86 S6        29.84S WCI  23
DENISON *      CLOUDY    28  21  74 SW9       29.88F WCI  20
LE MARS *      CLOUDY    28  25  86 S8        29.82F WCI  20
ORANGE CITY *  CLOUDY    28  27  93 S7        29.81F WCI  21
SHELDON *      CLOUDY    30  27  86 S8        29.79F WCI  23
SIOUX CITY     CLOUDY    25  23  92 SE9       29.84F WCI  15
SPENCER        CLOUDY    30  24  78 SW7       29.81F WCI  23
STORM LAKE *   CLOUDY    30  25  80 SW17      29.83S WCI  18
$$

IAZ055>058-069>071-079>083-090>094-190500-
   SOUTHWEST IOWA

CITY           SKY/WX    TMP DP  RH WIND       PRES   REMARKS
ATLANTIC *     CLOUDY    23  21  93 SW5       29.92S WCI  17
AUDUBON *      CLOUDY    30  23  74 S10       29.90F WCI  21
CLARINDA *     CLOUDY    28  25  86 S8        29.97F WCI  20
COUNCIL BLFS * CLOUDY    32  25  74 S10       29.90F WCI  24
CRESTON *      CLOUDY    30  23  74 SW15      29.94S WCI  19
HARLAN  *      CLOUDY    27  23  86 S7        29.92F WCI  19
LAMONI         CLOUDY    31  21  66 S13       29.96F WCI  21
RED OAK *      CLOUDY    28  25  86 S7        29.94S WCI  21
SHENANDOAH *   CLOUDY    30  25  80 S6        29.95F WCI  24
$$

IAZ047>049-059>061-072>074-084-190500-
   CENTRAL IOWA

CITY           SKY/WX    TMP DP  RH WIND       PRES   REMARKS
AMES           CLOUDY    26  22  84 S5        29.92S WCI  20
ANKENY *       CLOUDY    32  23  69 SW7       29.94S WCI  26
BOONE *        CLOUDY    28  23  80 SW10      29.89S WCI  19
CHARITON *     CLOUDY    32  23  69 S13       29.95F WCI  22
DES MOINES     CLOUDY    31  22  69 SW6       29.93F WCI  25
GRINNELL*      PTCLDY    30  22  73 SW12      29.94S WCI  20
KNOXVILLE *    CLOUDY    34  21  60 SW15G23   29.93F WCI  24
MARSHALLTOWN   CLOUDY    26  20  77 SW8       29.92S WCI  18
NEWTON *       PTCLDY    30  21  69 SW12      29.93F WCI  21
PELLA *        CLOUDY    33  23  64 SW14      29.96F WCI  24
PERRY *          N/A     25  22  88 S7        29.90F WCI  17
$$

IAZ004>006-015-016-023>025-035-036-190500-
   NORTH CENTRAL IOWA

CITY           SKY/WX    TMP DP  RH WIND       PRES   REMARKS
ALGONA *       CLOUDY    25 N/A N/A S13       29.82F WCI  13
CLARION *      CLOUDY    25  25 100 S10       29.86F WCI  15
ESTHERVILLE    CLOUDY    32  26  78 SW15      29.79F WCI  22
FORT DODGE *   CLOUDY    27  21  78 S12       29.86F WCI  17
MASON CITY     CLOUDY    28  20  71 SW16      29.85F WCI  16
FOREST CITY *    N/A     30  23  74 SW13      29.83F WCI  20
WEBSTER CITY * CLOUDY    27  21  80 S10       29.87S WCI  17
IOWA FALLS *     N/A     28  23  81 SW12      29.89F WCI  18
$$

IAZ007>011-017>019-026>030-037>042-050>054-066-190500-
   NORTHEAST IOWA

CITY           SKY/WX    TMP DP  RH WIND       PRES   REMARKS
CEDAR RAPIDS     N/A     28  20  71 S8        29.94S WCI  20
CHARLES CITY *   N/A     27  23  86 SW10      29.87S WCI  17
CLINTON *        N/A     27  21  78 SW10      29.98F WCI  17
DECORAH *        N/A     28  21  74 S9G16     29.84F WCI  20
DUBUQUE          N/A     26  19  74 SW15      29.90F WCI  14
MONTICELLO *     N/A     28  21  74 S7        29.93F WCI  21
OELWEIN *        N/A     25  23  93 S9        29.90S WCI  15
WATERLOO         N/A     28  20  71 SW9       29.90F WCI  19
$$

IAZ064-065-067-068-078-190500-
   EAST CENTRAL IOWA

CITY           SKY/WX    TMP DP  RH WIND       PRES   REMARKS
DAVENPORT        N/A     32  20  61 SW14      30.00F WCI  22
IOWA CITY        N/A     30  20  66 S7        29.99S WCI  23
MT. PLEASANT * CLOUDY    30  21  69 SW14      30.01S WCI  20
MUSCATINE *      N/A     30  21  69 S10       30.01S WCI  21
QUAD CITIES      N/A     32  21  64 SW12      29.99S WCI  23
$$

IAZ062-063-075>077-085>089-095>099-190500-
   SOUTHEAST IOWA

CITY           SKY/WX    TMP DP  RH WIND       PRES   REMARKS
BURLINGTON     CLOUDY    31  20  63 SW12      30.02R WCI  22
FAIRFIELD *    CLOUDY    32  19  59 SW10      29.98S WCI  24
FORT MADISON * CLOUDY    32  21  64 SW12      30.03S WCI  23
KEOKUK *       CLOUDY    32  21  64 SW15      30.03S WCI  22
OSKALOOSA *      N/A     30  22  74 SW12      29.97S WCI  20
CENTERVILLE *    N/A     30  23  74 S14       30.00S WCI  20
OTTUMWA        CLOUDY    32  20  61 SW15      29.96F WCI  22
WASHINGTON *   CLOUDY    30  23  74 SW14      29.99S WCI  20
$$

ABBREVIATIONS USED IN REMARKS
   TC - TEMPERATURES IN CELSIUS
  WCI - WIND CHILL INDEX
   HX - HEAT INDEX
  VSB - VISIBILITY
$$





USA.gov is the U.S. government's official web portal to all federal, state and local government web resources and services.